Copper Mountain, CO

4:38 AM MDT on March 27, 2017 (GMT -0600)
Copper Mountain

Weather History for KCCU - January, 2014

Change the Weather History Date:

Thursday, January 30, 2014

  Actual Average Record
Temperature  
Mean Temperature 22 °F -  
Max Temperature 28 °F - 32 °F (2011)
Min Temperature 17 °F - -5 °F (2008)
Degree Days  
Heating Degree Days 42    
Month to date heating degree days  
Cooling Degree Days 0    
Month to date cooling degree days  
Moisture  
Dew Point 17 °F    
Average Humidity 80    
Maximum Humidity 86    
Minimum Humidity 74    
Precipitation  
Precipitation 0.00 in - 0.11 in (2002)
Sea Level Pressure  
Sea Level Pressure 29.68 in    
Wind  
Wind Speed 18 mph (WSW)    
Max Wind Speed 39 mph    
Max Gust Speed 52 mph    
T = Trace of Precipitation, MM = Missing Value Source: NWS Daily Summary

Daily Weather History Graph

Daily Weather History Graph

Search for Another Location

Airport or City:

Trip Planner

Search our weather history database for the weather conditions in past years. The results will help you decide how hot, cold, wet, or windy it might be!

Date:

Astronomy

Jan. 30, 2014 Rise Set
Actual Time 7:13 AM MST 5:22 PM MST
Civil Twilight 6:45 AM MST 5:51 PM MST
Nautical Twilight 6:12 AM MST 6:23 PM MST
Astronomical Twilight 5:41 AM MST 6:55 PM MST
Moon 6:41 AM MST (1/30) 5:37 PM MST (1/30)
Length of Visible Light 11h 05m
Length of Day
10h 08m
Waning Crescent, 0% of the Moon is Illuminated
Jan 30
Waning Crescent
Jan 30
New
Feb 6
First Quarter
Feb 14
Full
Feb 22
Last Quarter

Hourly Weather History & Observations

Time (MST) Temp. Windchill Dew Point Humidity Pressure Visibility Wind Dir Wind Speed Gust Speed Precip Events Conditions
12:16 AM 28.4 °F 15.1 °F 21.2 °F 74% 29.71 in 0.2 mi SSW 20.7 mph 39.1 mph N/A Snow Heavy Snow
12:36 AM 28.4 °F 14.1 °F 21.2 °F 74% 29.69 in 0.2 mi SW 24.2 mph 44.9 mph N/A Snow Heavy Snow
12:56 AM 28.4 °F 14.7 °F 21.2 °F 74% 29.69 in 0.2 mi SW 21.9 mph 41.4 mph N/A Snow Heavy Snow
1:16 AM 28.4 °F 12.5 °F 23.0 °F 80% 29.67 in 0.2 mi WSW 31.1 mph 50.6 mph N/A Snow Heavy Snow
1:36 AM 28.4 °F 11.0 °F 23.0 °F 80% 29.65 in 0.2 mi WSW 39.1 mph 51.8 mph N/A Snow Heavy Snow
1:56 AM 28.4 °F 12.3 °F 23.0 °F 80% 29.67 in 0.2 mi West 32.2 mph 51.8 mph N/A Snow Heavy Snow
2:16 AM 26.6 °F 12.4 °F 21.2 °F 80% 29.69 in 0.2 mi West 21.9 mph 35.7 mph N/A Snow Heavy Snow
2:36 AM 24.8 °F - 19.4 °F 80% 29.69 in 0.2 mi North - - N/A Snow Heavy Snow
2:56 AM 23.0 °F 4.1 °F 17.6 °F 80% 29.68 in 0.2 mi West 35.7 mph - N/A Snow Heavy Snow
3:16 AM 23.0 °F 4.9 °F 17.6 °F 80% 29.69 in 0.2 mi West 32.2 mph - N/A Snow Heavy Snow
3:36 AM 23.0 °F 5.1 °F 17.6 °F 80% 29.70 in 0.2 mi West 31.1 mph 39.1 mph N/A Snow Heavy Snow
3:56 AM 23.0 °F 5.1 °F 17.6 °F 80% 29.69 in 0.2 mi West 31.1 mph - N/A Snow Heavy Snow
4:16 AM 23.0 °F - 17.6 °F 80% 29.69 in 0.2 mi North - - N/A Snow Snow
4:36 AM 23.0 °F - 17.6 °F 80% 29.70 in 0.2 mi North - - N/A Snow Snow
4:56 AM 23.0 °F - 17.6 °F 80% 29.70 in 0.2 mi North - - N/A Snow Snow
5:16 AM 23.0 °F 9.2 °F 17.6 °F 80% 29.70 in 0.2 mi WNW 17.3 mph - N/A Snow Snow
5:36 AM 21.2 °F 7.8 °F 15.8 °F 80% 29.70 in 0.5 mi West 15.0 mph 24.2 mph N/A Snow Snow
5:56 AM 19.4 °F 5.5 °F 14.0 °F 80% 29.71 in 0.2 mi West 15.0 mph - N/A Snow Snow
6:16 AM 19.4 °F - 14.0 °F 80% 29.71 in 0.2 mi North - - N/A Snow Snow
6:25 AM 19.4 °F 4.1 °F 14.0 °F 80% 29.71 in - West 18.4 mph - N/A   Overcast
7:56 AM 19.4 °F 4.5 °F 14.0 °F 80% 29.72 in - West 17.3 mph - N/A   Overcast
8:16 AM 19.4 °F 8.6 °F 14.0 °F 80% 29.73 in - West 9.2 mph - N/A   Overcast
8:36 AM 17.6 °F 3.7 °F 12.2 °F 79% 29.74 in 0.2 mi West 13.8 mph - N/A Snow Snow
8:56 AM 19.4 °F - 12.2 °F 74% 29.74 in 0.2 mi Calm Calm - N/A Snow Snow
9:16 AM 19.4 °F 9.5 °F 14.0 °F 80% 29.74 in 0.2 mi West 8.1 mph - N/A Snow Snow
9:36 AM 19.4 °F 12.8 °F 14.0 °F 80% 29.75 in 0.5 mi SSW 4.6 mph - N/A Snow Snow
9:56 AM 19.4 °F 14.3 °F 14.0 °F 80% 29.75 in 0.2 mi WSW 3.5 mph - N/A Snow Snow
10:16 AM 19.4 °F 11.5 °F 14.0 °F 80% 29.75 in 0.5 mi WSW 5.8 mph - N/A Snow Snow
10:36 AM 19.4 °F 10.4 °F 14.0 °F 80% 29.75 in 0.2 mi WSW 6.9 mph 17.3 mph N/A Snow Snow
10:56 AM 19.4 °F 8.6 °F 14.0 °F 80% 29.75 in 0.2 mi West 9.2 mph - N/A Snow Snow
11:16 AM 19.4 °F - 14.0 °F 80% 29.74 in 0.5 mi Calm Calm - N/A Snow Snow
11:36 AM 19.4 °F 11.5 °F 14.0 °F 80% 29.73 in 0.5 mi SSW 5.8 mph - N/A Snow Snow
11:56 AM 23.0 °F 12.4 °F 17.6 °F 80% 29.72 in 0.5 mi South 10.4 mph - N/A Snow Snow
12:16 PM 23.0 °F 15.8 °F 17.6 °F 80% 29.71 in 0.5 mi South 5.8 mph - N/A Snow Snow
12:36 PM 23.0 °F 10.1 °F 17.6 °F 80% 29.70 in 0.5 mi South 15.0 mph - N/A Snow Light Snow
12:56 PM 24.8 °F 19.1 °F 19.4 °F 80% 29.69 in 0.8 mi SSW 4.6 mph 21.9 mph N/A Snow Light Snow
1:16 PM 24.8 °F 15.3 °F 19.4 °F 80% 29.69 in 0.8 mi SSW 9.2 mph 16.1 mph N/A Snow Light Snow
1:36 PM 24.8 °F 17.9 °F 19.4 °F 80% 29.68 in 0.5 mi SW 5.8 mph 19.6 mph N/A Snow Snow
1:56 PM 24.8 °F 14.6 °F 19.4 °F 80% 29.68 in 0.5 mi South 10.4 mph 20.7 mph N/A Snow Snow
2:16 PM 24.8 °F 19.1 °F 19.4 °F 80% 29.67 in 0.5 mi SW 4.6 mph 20.7 mph N/A Snow Snow
2:36 PM 23.0 °F 13.1 °F 17.6 °F 80% 29.67 in 0.5 mi West 9.2 mph - N/A Snow Snow
2:56 PM 23.0 °F 8.3 °F 17.6 °F 80% 29.67 in 0.8 mi WNW 19.6 mph - N/A Snow Light Snow
3:16 PM 23.0 °F 10.1 °F 17.6 °F 80% 29.67 in 0.5 mi West 15.0 mph - N/A Snow Snow
3:36 PM 23.0 °F 10.1 °F 17.6 °F 80% 29.67 in 0.5 mi West 15.0 mph - N/A Snow Light Snow
3:56 PM 23.0 °F - 17.6 °F 80% 29.67 in 0.5 mi North - - N/A Snow Snow
4:16 PM 23.0 °F 14.7 °F 17.6 °F 80% 29.66 in 0.5 mi West 6.9 mph - N/A Snow Snow
4:36 PM 23.0 °F 15.8 °F 17.6 °F 80% 29.66 in 0.5 mi WSW 5.8 mph - N/A Snow Snow
4:56 PM 23.0 °F 15.8 °F 17.6 °F 80% 29.66 in 0.2 mi West 5.8 mph - N/A Snow Snow
5:16 PM 23.0 °F 8.3 °F 17.6 °F 80% 29.67 in 0.2 mi WNW 19.6 mph - N/A Snow Snow
5:36 PM 23.0 °F 9.2 °F 17.6 °F 80% 29.66 in 0.2 mi WNW 17.3 mph - N/A Snow Snow
5:56 PM 23.0 °F 8.7 °F 17.6 °F 80% 29.66 in 0.8 mi WNW 18.4 mph - N/A Snow Snow
6:16 PM 23.0 °F 8.3 °F 17.6 °F 80% 29.66 in 0.8 mi WNW 19.6 mph - N/A Snow Snow
6:36 PM 21.2 °F 8.9 °F 15.8 °F 80% 29.66 in 0.8 mi West 12.7 mph - N/A Snow Snow
6:56 PM 23.0 °F 18.4 °F 17.6 °F 80% 29.66 in 1.0 mi WSW 3.5 mph - N/A Snow Snow
7:16 PM 23.0 °F - 17.6 °F 80% 29.65 in 0.8 mi North - - N/A Snow Snow
7:36 PM 23.0 °F 13.9 °F 17.6 °F 80% 29.63 in 0.5 mi South 8.1 mph - N/A Snow Heavy Snow
7:56 PM 23.0 °F 14.7 °F 17.6 °F 80% 29.63 in 0.5 mi South 6.9 mph - N/A Snow Snow
8:16 PM 23.0 °F 13.9 °F 17.6 °F 80% 29.63 in 1.0 mi South 8.1 mph - N/A Snow Snow
8:36 PM 23.0 °F 10.6 °F 17.6 °F 80% 29.61 in 1.0 mi South 13.8 mph - N/A Snow Snow
8:56 PM 23.0 °F 12.4 °F 17.6 °F 80% 29.62 in 1.0 mi South 10.4 mph - N/A Snow Snow
9:16 PM 21.2 °F - 15.8 °F 80% 29.61 in 0.8 mi North - - N/A Snow Snow
9:36 PM 21.2 °F 6.0 °F 15.8 °F 80% 29.61 in 0.8 mi WNW 19.6 mph - N/A Snow Snow
9:56 PM 21.2 °F 5.6 °F 17.6 °F 86% 29.61 in 0.8 mi West 20.7 mph - N/A Snow Snow
10:16 PM 21.2 °F 6.0 °F 14.0 °F 74% 29.62 in 1.0 mi West 19.6 mph - N/A Snow Snow
10:36 PM 19.4 °F 4.1 °F 14.0 °F 80% 29.61 in 0.5 mi West 18.4 mph - N/A Snow Snow
10:56 PM 19.4 °F 4.1 °F 14.0 °F 80% 29.61 in 0.5 mi West 18.4 mph - N/A Snow Snow
11:16 PM 19.4 °F 6.0 °F 14.0 °F 80% 29.60 in 1.2 mi West 13.8 mph - N/A Snow Light Snow
11:36 PM 19.4 °F 6.0 °F 14.0 °F 80% 29.60 in 0.8 mi West 13.8 mph - N/A Snow Snow
11:56 PM 19.4 °F 6.6 °F 14.0 °F 80% 29.61 in 0.8 mi West 12.7 mph - N/A Snow Snow